GW6489 Weather Reports


time (UTC)temp
C
wind
direction
speed
KPH
gust
KPH
rain 1hr
cm
rain 24hr
cm
rain mn
cm
humidity
%
barometer
mb
20260504120104 11 86 1.6 3.2 0.00 0.00 0.00 59 990.8
20260504110531 8 99 1.6 3.2 0.00 0.00 0.00 65 990.8
20260504100453 7 99 0.0 1.6 0.00 0.00 0.00 71 990.8
20260504081846 9 99 0.0 1.6 0.00 0.00 0.00 59 991.2
20260504081343 9 99 1.6 3.2 0.00 0.00 0.00 58 990.8
20260504080839 8 94 1.6 3.2 0.00 0.00 0.00 59 990.9
20260504080336 8 93 0.0 1.6 0.00 0.00 0.00 60 990.9
20260504070303 8 86 0.0 0.0 0.00 0.00 0.00 69 991.2
20260504060224 7 86 0.0 0.0 0.00 0.00 0.00 68 991.4
20260504050652 7 152 0.0 0.0 0.00 0.00 0.00 68 991.8
20260504050149 7 152 0.0 0.0 0.00 0.00 0.00 70 991.7
20260504045646 7 152 0.0 0.0 0.00 0.00 0.00 70 991.6
20260504045146 7 152 0.0 0.0 0.00 0.00 0.00 70 991.6
20260504044644 7 152 0.0 0.0 0.00 0.00 0.00 68 991.4
20260504044140 7 182 0.0 0.0 0.00 0.00 0.00 65 991.5
20260504043637 7 182 0.0 0.0 0.00 0.00 0.00 64 991.6
20260504043135 7 182 0.0 0.0 0.00 0.00 0.00 63 991.4
20260504042632 7 182 0.0 0.0 0.00 0.00 0.00 62 991.2
20260504042129 7 182 0.0 0.0 0.00 0.00 0.00 63 991.3
20260504041624 7 182 0.0 0.0 0.00 0.00 0.00 66 991.5
20260504041121 7 182 0.0 0.0 0.00 0.00 0.00 66 991.7
20260504040618 7 182 0.0 0.0 0.00 0.00 0.00 66 991.5
20260504040115 7 182 0.0 0.0 0.00 0.00 0.00 64 991.6
20260504035612 7 182 0.0 0.0 0.00 0.00 0.00 65 991.6
20260504035108 7 182 0.0 0.0 0.00 0.00 0.00 64 991.5
20260504034606 7 182 0.0 0.0 0.00 0.00 0.00 64 991.8
20260504034102 7 182 0.0 0.0 0.00 0.00 0.00 64 991.8
20260504033600 7 182 0.0 0.0 0.00 0.00 0.00 64 991.7
20260504033057 7 181 0.0 0.0 0.00 0.00 0.00 63 991.4
20260504032554 7 182 0.0 1.6 0.00 0.00 0.00 64 991.5
20260504032051 7 194 0.0 1.6 0.00 0.00 0.00 64 991.6
20260504031548 7 194 0.0 0.0 0.00 0.00 0.00 63 991.5
20260504031044 7 194 0.0 0.0 0.00 0.00 0.00 63 991.4
20260504030542 6 194 0.0 0.0 0.00 0.00 0.00 66 991.6
20260504030038 6 194 0.0 0.0 0.00 0.00 0.00 69 991.3
20260504025535 6 194 0.0 0.0 0.00 0.00 0.00 73 991.4
20260504025032 6 194 0.0 0.0 0.00 0.00 0.00 73 991.3
20260504024529 6 194 0.0 0.0 0.00 0.00 0.00 73 991.4
20260504024026 6 194 0.0 0.0 0.00 0.00 0.00 71 991.4
20260504023522 6 194 0.0 0.0 0.00 0.00 0.00 68 991.7
20260504023018 6 194 0.0 0.0 0.00 0.00 0.00 68 991.3
20260504022514 6 194 0.0 0.0 0.00 0.00 0.00 68 991.3
20260504022011 6 194 0.0 0.0 0.00 0.00 0.00 67 991.3
20260504021509 6 194 0.0 0.0 0.00 0.00 0.00 67 991.0
20260504021005 6 194 0.0 0.0 0.00 0.00 0.00 67 991.2
20260504020502 6 194 0.0 0.0 0.00 0.00 0.00 66 991.0
20260504015959 7 194 0.0 0.0 0.00 0.00 0.00 65 991.1
20260504015455 7 194 0.0 0.0 0.00 0.00 0.00 64 991.1
20260504014951 7 194 0.0 0.0 0.00 0.00 0.00 63 990.8
20260504014447 7 194 0.0 0.0 0.00 0.00 0.00 62 990.9
20260504013944 7 194 0.0 0.0 0.00 0.00 0.00 60 990.7
20260504013443 8 194 0.0 0.0 0.00 0.00 0.00 59 991.0
20260504012938 8 194 0.0 0.0 0.00 0.00 0.00 59 990.6
20260504012436 9 194 0.0 0.0 0.00 0.00 0.00 55 990.6
20260504011934 9 194 0.0 0.0 0.00 0.00 0.00 54 990.7
20260504011430 10 194 0.0 0.0 0.00 0.00 0.00 52 990.4
20260504010926 10 194 0.0 0.0 0.00 0.00 0.00 51 990.6
20260504010422 10 193 0.0 0.0 0.00 0.00 0.00 50 990.4
20260504005919 10 194 0.0 0.0 0.00 0.00 0.00 50 990.4
20260504005415 10 193 0.0 0.0 0.00 0.00 0.00 47 990.3
20260504004913 11 193 0.0 0.0 0.00 0.00 0.00 45 990.2
20260504004411 11 193 0.0 0.0 0.00 0.00 0.00 44 990.2
20260504003907 11 193 0.0 0.0 0.00 0.00 0.00 45 990.1
20260504003404 11 193 0.0 0.0 0.00 0.00 0.00 42 990.0
20260504002900 12 193 0.0 0.0 0.00 0.00 0.00 42 990.1
20260504002357 12 193 0.0 0.0 0.00 0.00 0.00 39 990.1
20260504001855 13 193 0.0 0.0 0.00 0.00 0.00 35 990.1
20260504001352 13 193 0.0 0.0 0.00 0.00 0.00 33 990.0
20260504000848 13 193 0.0 0.0 0.00 0.00 0.00 32 990.0
20260504000346 13 193 0.0 0.0 0.00 0.00 0.00 32 989.9
20260503235843 13 193 0.0 0.0 0.00 0.00 0.00 31 990.0
20260503235341 14 193 0.0 0.0 0.00 0.00 0.00 31 990.2
20260503234838 14 193 0.0 1.6 0.00 0.00 0.00 31 990.0
20260503234336 15 196 0.0 0.0 0.00 0.00 0.00 30 990.0
20260503233833 15 208 0.0 0.0 0.00 0.00 0.00 30 990.2
20260503233329 15 207 0.0 0.0 0.00 0.00 0.00 30 990.1
20260503232826 15 207 0.0 3.2 0.00 0.00 0.00 31 990.1
20260503232323 15 178 0.0 0.0 0.00 0.00 0.00 30 990.0
20260503231821 15 184 0.0 3.2 0.00 0.00 0.00 31 989.8
20260503231318 15 133 0.0 1.6 0.00 0.00 0.00 30 990.1
20260503230813 16 180 1.6 4.8 0.00 0.00 0.00 28 989.8
20260503230311 16 208 0.0 1.6 0.00 0.00 0.00 31 989.9
20260503225808 16 115 1.6 1.6 0.00 0.00 0.00 29 989.9
20260503225304 16 205 0.0 1.6 0.00 0.00 0.00 29 989.7
20260503224800 16 104 0.0 0.0 0.00 0.00 0.00 28 989.8
20260503224258 16 104 1.6 1.6 0.00 0.00 0.00 29 989.7
20260503223755 16 183 3.2 6.4 0.00 0.00 0.00 28 989.9
20260503223253 16 208 0.0 3.2 0.00 0.00 0.00 27 989.7
20260503222749 16 235 0.0 0.0 0.00 0.00 0.00 30 989.8
20260503222247 16 181 0.0 1.6 0.00 0.00 0.00 28 989.9
20260503221745 16 186 0.0 4.8 0.00 0.00 0.00 28 989.9
20260503221243 16 203 3.2 4.8 0.00 0.00 0.00 27 990.0
20260503220739 16 187 4.8 11.3 0.00 0.00 0.00 28 989.8
20260503220236 16 193 0.0 3.2 0.00 0.00 0.00 27 990.1
20260503215732 16 117 0.0 1.6 0.00 0.00 0.00 28 990.0
20260503215230 16 202 3.2 4.8 0.00 0.00 0.00 26 990.1
20260503214728 16 212 3.2 4.8 0.00 0.00 0.00 26 989.9
20260503214224 16 88 1.6 4.8 0.00 0.00 0.00 26 990.0
20260503213722 16 98 0.0 1.6 0.00 0.00 0.00 27 990.2
20260503213219 16 170 4.8 9.7 0.00 0.00 0.00 26 990.1
20260503212716 16 132 1.6 6.4 0.00 0.00 0.00 27 990.0
20260503212214 16 203 3.2 4.8 0.00 0.00 0.00 26 990.2
20260503211712 16 102 1.6 3.2 0.00 0.00 0.00 26 990.1
20260503211207 16 103 6.4 6.4 0.00 0.00 0.00 27 990.1
20260503210703 16 97 0.0 3.2 0.00 0.00 0.00 25 989.9
20260503210201 16 133 0.0 3.2 0.00 0.00 0.00 28 990.1
20260503205655 16 97 1.6 3.2 0.00 0.00 0.00 27 990.2
20260503205152 17 86 6.4 6.4 0.00 0.00 0.00 27 990.3
20260503204649 17 241 0.0 1.6 0.00 0.00 0.00 29 990.4
20260503204147 16 93 3.2 4.8 0.00 0.00 0.00 26 990.1
20260503203643 16 77 0.0 3.2 0.00 0.00 0.00 29 990.4
20260503203141 16 50 3.2 4.8 0.00 0.00 0.00 28 990.4
20260503202638 16 97 0.0 1.6 0.00 0.00 0.00 29 990.4
20260503202136 16 92 0.0 3.2 0.00 0.00 0.00 27 990.5
20260503201634 16 156 3.2 4.8 0.00 0.00 0.00 27 990.3
20260503201131 16 146 3.2 11.3 0.00 0.00 0.00 28 990.7
20260503200627 16 224 0.0 1.6 0.00 0.00 0.00 27 990.6
20260503200124 16 91 1.6 3.2 0.00 0.00 0.00 25 990.7
20260503195621 16 122 4.8 6.4 0.00 0.00 0.00 26 990.9
20260503195118 16 110 1.6 3.2 0.00 0.00 0.00 26 991.0
20260503194615 16 178 6.4 9.7 0.00 0.00 0.00 25 990.9
20260503194115 16 195 3.2 3.2 0.00 0.00 0.00 26 991.0
20260503193613 16 194 1.6 12.9 0.00 0.00 0.00 26 990.9
20260503193108 16 102 3.2 4.8 0.00 0.00 0.00 28 991.1
20260503192604 16 115 3.2 4.8 0.00 0.00 0.00 25 991.2
20260503192100 16 143 1.6 4.8 0.00 0.00 0.00 27 991.4
20260503191557 16 118 4.8 6.4 0.00 0.00 0.00 26 991.5
20260503191054 16 99 1.6 3.2 0.00 0.00 0.00 28 991.5
20260503190551 16 106 4.8 4.8 0.00 0.00 0.00 28 991.4
20260503190048 15 233 8.0 9.7 0.00 0.00 0.00 29 991.4
20260503185544 16 181 8.0 11.3 0.00 0.00 0.00 27 991.8
20260503185044 15 210 4.8 6.4 0.00 0.00 0.00 28 991.8
20260503184540 15 193 4.8 11.3 0.00 0.00 0.00 27 991.8
20260503184037 16 79 3.2 9.7 0.00 0.00 0.00 29 991.8
20260503183533 15 149 3.2 6.4 0.00 0.00 0.00 32 991.9
20260503183031 15 120 3.2 3.2 0.00 0.00 0.00 30 992.2
20260503182529 15 177 4.8 4.8 0.00 0.00 0.00 29 992.0
20260503182027 15 176 0.0 3.2 0.00 0.00 0.00 30 992.1
20260503181523 15 103 0.0 1.6 0.00 0.00 0.00 30 992.1
20260503181019 15 109 3.2 4.8 0.00 0.00 0.00 28 992.0
20260503180517 15 105 1.6 3.2 0.00 0.00 0.00 31 992.2
20260503180014 15 47 1.6 3.2 0.00 0.00 0.00 31 992.0
20260503175512 15 91 0.0 4.8 0.00 0.00 0.00 29 992.1
20260503175008 15 184 1.6 6.4 0.00 0.00 0.00 30 992.2
20260503174506 14 102 1.6 9.7 0.00 0.00 0.00 33 992.4
20260503174002 14 78 1.6 3.2 0.00 0.00 0.00 33 992.4
20260503173457 14 195 3.2 9.7 0.00 0.00 0.00 31 992.4
20260503172954 14 221 0.0 0.0 0.00 0.00 0.00 33 992.3
20260503172451 14 232 6.4 9.7 0.00 0.00 0.00 32 992.5
20260503171948 14 104 4.8 6.4 0.00 0.00 0.00 31 992.5
20260503171445 14 210 6.4 9.7 0.00 0.00 0.00 31 992.6
20260503170943 13 212 1.6 3.2 0.00 0.00 0.00 33 992.7
20260503170438 14 94 4.8 4.8 0.00 0.00 0.00 32 992.9
20260503150831 11 110 1.6 4.8 0.00 0.00 0.00 39 994.0
20260503150327 11 269 3.2 9.7 0.00 0.00 0.00 39 994.2
20260503140251 10 221 4.8 6.4 0.00 0.00 0.00 44 993.7
20260503131221 8 236 1.6 3.2 0.00 0.00 0.00 44 993.9
20260503130718 9 192 4.8 9.7 0.00 0.00 0.00 44 994.0
20260503130215 9 186 0.0 4.8 0.00 0.00 0.00 47 993.8